TimeMDT,TemperatureF,Dew PointF,Humidity,Sea Level PressureIn,VisibilityMPH,Wind Direction,Wind SpeedMPH,Gust SpeedMPH,PrecipitationIn,Events,Conditions,WindDirDegrees,DateUTC
12:15 AM,59.2,24.8,27,30.27,10.0,NNW,11.5,-,N/A,,Clear,330,2013-08-05 06:15:00
12:35 AM,59.4,24.6,26,30.27,10.0,NNW,9.2,-,N/A,,Clear,340,2013-08-05 06:35:00
12:55 AM,58.1,25.0,28,30.28,10.0,NNW,6.9,-,N/A,,Clear,340,2013-08-05 06:55:00
1:15 AM,57.2,25.2,29,30.28,10.0,NNW,10.4,-,N/A,,Clear,330,2013-08-05 07:15:00
1:35 AM,56.5,25.0,30,30.28,10.0,North,6.9,-,N/A,,Clear,360,2013-08-05 07:35:00
1:55 AM,55.2,25.2,31,30.29,10.0,NNW,5.8,-,N/A,,Clear,340,2013-08-05 07:55:00
2:15 AM,54.9,25.3,32,30.29,10.0,NNW,8.1,-,N/A,,Clear,330,2013-08-05 08:15:00
2:35 AM,54.5,24.8,32,30.29,10.0,NNW,8.1,-,N/A,,Clear,340,2013-08-05 08:35:00
2:55 AM,53.4,24.6,33,30.29,10.0,North,3.5,-,N/A,,Clear,360,2013-08-05 08:55:00
3:15 AM,52.9,25.7,35,30.29,10.0,North,8.1,-,N/A,,Clear,350,2013-08-05 09:15:00
3:35 AM,51.3,27.5,40,30.29,10.0,North,6.9,-,N/A,,Clear,350,2013-08-05 09:35:00
3:55 AM,48.0,29.7,49,30.29,10.0,North,13.8,-,N/A,,Clear,360,2013-08-05 09:55:00
4:15 AM,47.3,28.8,49,30.28,10.0,North,11.5,-,N/A,,Clear,360,2013-08-05 10:15:00
4:35 AM,47.7,27.7,46,30.28,10.0,North,11.5,-,N/A,,Clear,360,2013-08-05 10:35:00
4:55 AM,46.8,28.8,50,30.27,10.0,North,12.7,-,N/A,,Clear,360,2013-08-05 10:55:00
5:15 AM,46.6,28.6,50,30.27,10.0,North,11.5,-,N/A,,Clear,350,2013-08-05 11:15:00
5:35 AM,46.6,28.2,49,30.28,10.0,North,9.2,-,N/A,,Clear,350,2013-08-05 11:35:00
5:55 AM,48.2,26.6,43,30.28,10.0,North,12.7,-,N/A,,Clear,350,2013-08-05 11:55:00
6:15 AM,47.3,27.5,46,30.28,10.0,North,12.7,-,N/A,,Clear,350,2013-08-05 12:15:00
6:35 AM,47.8,27.5,45,30.28,10.0,NNW,17.3,-,N/A,,Clear,330,2013-08-05 12:35:00
6:55 AM,49.5,27.5,43,30.29,10.0,NNW,12.7,-,N/A,,Clear,340,2013-08-05 12:55:00
7:15 AM,49.8,28.2,43,30.29,10.0,NNW,10.4,-,N/A,,Clear,340,2013-08-05 13:15:00
7:35 AM,49.8,31.1,49,30.29,10.0,North,9.2,-,N/A,,Clear,350,2013-08-05 13:35:00
7:55 AM,51.8,30.2,44,30.30,10.0,NNW,9.2,-,N/A,,Clear,330,2013-08-05 13:55:00
8:15 AM,56.5,29.5,36,30.30,10.0,NNE,3.5,-,N/A,,Clear,20,2013-08-05 14:15:00
8:35 AM,59.2,31.1,35,30.30,10.0,NNE,3.5,-,N/A,,Clear,30,2013-08-05 14:35:00
8:55 AM,61.9,31.5,32,30.30,10.0,Calm,Calm,-,N/A,,Clear,0,2013-08-05 14:55:00
9:15 AM,64.8,31.3,29,30.30,10.0,Calm,Calm,-,N/A,,Clear,0,2013-08-05 15:15:00
9:35 AM,68.5,29.1,23,30.30,10.0,Calm,Calm,-,N/A,,Clear,0,2013-08-05 15:35:00
9:55 AM,72.9,28.4,19,30.30,10.0,Calm,Calm,-,N/A,,Clear,0,2013-08-05 15:55:00
10:15 AM,74.7,29.5,19,30.30,10.0,WSW,4.6,-,N/A,,Clear,250,2013-08-05 16:15:00
10:35 AM,76.8,30.9,19,30.30,10.0,West,5.8,-,N/A,,Clear,270,2013-08-05 16:35:00
10:55 AM,78.4,31.6,18,30.30,10.0,WSW,10.4,-,N/A,,Clear,240,2013-08-05 16:55:00
11:15 AM,79.3,30.9,17,30.29,10.0,SW,4.6,10.4,N/A,,Clear,230,2013-08-05 17:15:00
11:35 AM,80.8,29.7,16,30.29,10.0,WSW,9.2,-,N/A,,Clear,240,2013-08-05 17:35:00
11:55 AM,81.9,27.9,14,30.28,10.0,SW,10.4,-,N/A,,Clear,230,2013-08-05 17:55:00
12:15 PM,81.3,23.9,12,30.27,10.0,SW,9.2,17.3,N/A,,Scattered Clouds,230,2013-08-05 18:15:00
12:35 PM,82.4,23.7,12,30.26,10.0,NW,13.8,20.7,N/A,,Scattered Clouds,310,2013-08-05 18:35:00
12:55 PM,81.9,20.8,10,30.26,10.0,WSW,11.5,16.1,N/A,,Scattered Clouds,250,2013-08-05 18:55:00
1:15 PM,79.9,19.6,11,30.26,10.0,West,16.1,20.7,N/A,,Scattered Clouds,270,2013-08-05 19:15:00
1:35 PM,78.3,18.0,10,30.26,10.0,WNW,6.9,32.2,N/A,,Mostly Cloudy,290,2013-08-05 19:35:00
1:55 PM,79.2,19.2,11,30.26,10.0,West,13.8,21.9,N/A,,Scattered Clouds,260,2013-08-05 19:55:00
2:15 PM,81.5,19.8,10,30.26,10.0,WSW,20.7,28.8,N/A,,Clear,240,2013-08-05 20:15:00
2:35 PM,81.3,21.2,11,30.26,10.0,West,15.0,20.7,N/A,,Clear,260,2013-08-05 20:35:00
2:55 PM,81.3,22.8,12,30.25,10.0,SW,6.9,-,N/A,,Scattered Clouds,230,2013-08-05 20:55:00
3:15 PM,81.3,23.7,12,30.24,10.0,North,3.5,-,N/A,,Overcast,350,2013-08-05 21:15:00
3:35 PM,79.9,25.0,13,30.24,10.0,NNE,16.1,23.0,N/A,,Scattered Clouds,20,2013-08-05 21:35:00
3:55 PM,-9999,-9999,N/A,30.24,10.0,North,28.8,47.2,N/A,,Mostly Cloudy,360,2013-08-05 21:55:00
4:15 PM,73.0,30.4,21,30.26,10.0,NW,12.7,44.9,N/A,Rain,Light Rain,310,2013-08-05 22:15:00
4:35 PM,74.7,29.1,19,30.25,10.0,South,6.9,-,N/A,,Mostly Cloudy,170,2013-08-05 22:35:00
4:55 PM,76.1,29.3,18,30.25,10.0,SSW,17.3,-,N/A,,Mostly Cloudy,210,2013-08-05 22:55:00
5:15 PM,75.0,29.8,19,30.25,10.0,WSW,8.1,-,N/A,,Scattered Clouds,250,2013-08-05 23:15:00
5:35 PM,75.2,30.0,19,30.24,10.0,SW,13.8,25.3,N/A,,Scattered Clouds,220,2013-08-05 23:35:00
5:55 PM,75.2,30.0,19,30.22,10.0,SSW,10.4,-,N/A,,Mostly Cloudy,200,2013-08-05 23:55:00
6:15 PM,75.6,28.9,18,30.21,10.0,South,10.4,17.3,N/A,,Scattered Clouds,190,2013-08-06 00:15:00
6:35 PM,74.8,30.0,19,30.21,10.0,South,3.5,-,N/A,,Scattered Clouds,190,2013-08-06 00:35:00
6:55 PM,76.1,30.0,18,30.22,10.0,West,9.2,-,N/A,,Clear,270,2013-08-06 00:55:00
7:15 PM,73.2,29.3,20,30.22,10.0,NNW,21.9,27.6,N/A,,Mostly Cloudy,340,2013-08-06 01:15:00
7:35 PM,72.9,30.0,21,30.23,10.0,North,6.9,-,N/A,,Scattered Clouds,350,2013-08-06 01:35:00
7:55 PM,71.4,30.4,22,30.24,10.0,North,9.2,-,N/A,,Clear,350,2013-08-06 01:55:00
8:15 PM,68.9,29.8,23,30.23,10.0,North,6.9,-,N/A,,Clear,10,2013-08-06 02:15:00
8:35 PM,66.7,30.2,26,30.22,10.0,NNE,5.8,-,N/A,,Clear,20,2013-08-06 02:35:00
8:55 PM,65.1,29.7,26,30.22,10.0,North,9.2,-,N/A,,Clear,350,2013-08-06 02:55:00
9:15 PM,64.6,30.2,28,30.22,10.0,North,8.1,-,N/A,,Clear,360,2013-08-06 03:15:00
9:35 PM,63.1,30.4,29,30.23,10.0,North,9.2,-,N/A,,Clear,350,2013-08-06 03:35:00
9:55 PM,62.1,30.9,31,30.23,10.0,North,10.4,-,N/A,,Clear,360,2013-08-06 03:55:00
10:15 PM,60.6,32.0,34,30.23,10.0,North,9.2,-,N/A,,Clear,350,2013-08-06 04:15:00
10:35 PM,60.3,32.0,34,30.23,10.0,NNW,6.9,-,N/A,,Clear,340,2013-08-06 04:35:00
10:55 PM,60.6,31.6,34,30.22,10.0,NNW,8.1,-,N/A,,Clear,340,2013-08-06 04:55:00
11:15 PM,59.4,31.8,35,30.23,10.0,NNW,5.8,-,N/A,,Clear,340,2013-08-06 05:15:00
11:35 PM,57.2,32.7,40,30.22,10.0,North,4.6,-,N/A,,Clear,350,2013-08-06 05:35:00
11:55 PM,56.1,32.9,41,30.22,10.0,NNW,4.6,-,N/A,,Clear,340,2013-08-06 05:55:00